Tracking 25964 objects as of 11-Aug-2022
HD Live streaming from Space Station
objects crossing your sky now

METEOR 1-13

Track METEOR 1-13 now!
10-day predictions
METEOR 1-13 is classified as:


NORAD ID: 6256
Int'l Code: 1972-085A
Perigee: 848.5 km
Apogee: 891.4 km
Inclination: 81.3 °
Period: 102.2 minutes
Semi major axis: 7240 km
RCS: 4.603 m2 (large)
Launch date: October 26, 1972
Source: Commonwealth of Independent States (former USSR) (CIS)
Launch site: PLESETSK MISSILE AND SPACE COMPLEX (PKMTR)
aabbcc
Your satellite tracking list
Your tracking list is empty




NASA's NSSDC Master Catalog

Two Line Element Set (TLE):
1  6256U 72085A   22223.73786207  .00000040  00000-0  15729-4 0  9994
2  6256  81.2705  74.7752 0029646 185.7791 174.3042 14.08993650557565
Source of the keplerian elements: AFSPC